Preview of NWS' New Version of Forecast
This preview is not operational and should not be used for support decisions.

Regional Weather Roundup (RWR)

Issued by National Weather Service (NWS)

                            
000
ASUS45 KBOI 171910
RWRID 

IDAHO REGIONAL WEATHER ROUNDUP
NATIONAL WEATHER SERVICE BOISE ID
100 PM MDT TUE SEP 17 2019

NOTE: "FAIR" INDICATES FEW OR NO CLOUDS BELOW 12000 FEET
WITH NO SIGNIFICANT WEATHER AND/OR OBSTRUCTIONS TO VISIBILITY

IDZ012-014-172000-
SOUTHWEST IDAHO

  
CITY           SKY/WX    TMP DP  RH WIND       PRES   REMARKS
BOISE          MOSUNNY   59  43  55 E5        30.06F                  
CALDWELL       PTSUNNY   62  39  42 SW5       30.04F                  
MOUNTAIN HOME  CLOUDY    60  41  49 CALM      30.06F                  
$$

IDZ016-017-172000-
SOUTHCENTRAL IDAHO

  
CITY           SKY/WX    TMP DP  RH WIND       PRES   REMARKS
BURLEY         SUNNY     59  37  44 W16G22    30.08F                  
JEROME         MOSUNNY   59  41  51 W14       30.09F                  
TWIN FALLS     PTSUNNY   57  37  47 W10       30.10S                  
$$

IDZ019>023-172000-
SOUTHEAST IDAHO

  
CITY           SKY/WX    TMP DP  RH WIND       PRES   REMARKS
IDAHO FALLS    CLOUDY    52  37  56 SW26G32   30.06S                  
POCATELLO      PTSUNNY   59  36  42 SW23G33   30.10S                  
REXBURG        CLOUDY    52  39  61 SW14G25   30.04F                  
$$

IDZ006-010-011-018-031-032-172000-
CENTRAL IDAHO MOUNTAINS

  
CITY           SKY/WX    TMP DP  RH WIND       PRES   REMARKS
MCCALL         CLOUDY    50  38  63 S12       30.03S                  
HAILEY         PTSUNNY   54  39  58 S12       30.06S                  
STANLEY          N/A     49  35  58 VRB3      30.07S                  
SALMON         CLOUDY    54  45  71 NE8       29.99S                  
CHALLIS        CLOUDY    57  37  47 NE5       29.99S                  
$$

IDZ002-004-006-007-026-172000-
NORTHERN IDAHO

  
CITY           SKY/WX    TMP DP  RH WIND       PRES   REMARKS
LEWISTON       SUNNY     70  38  31 SW13      29.91F                  
LOWELL           N/A     57  52  83 CALM      29.98F                  
COEUR D'ALENE  PTSUNNY   60  42  51 W8        29.94F                  
MULLAN PASS    CLOUDY    43  35  73 VRB5      29.97S                  
$$